Location: Wingville
(42.9917°N, 90.4915°W)
Time: 17:29:29
(UTC+00:00)

EO-79 - Pass Details

Date: 02 July 2022
Orbit: 588 x 603 km, 98.0° (Epoch: 17 August)

Event Time Altitude Azimuth Distance (km) Brightness Sun altitude
Rises 07:34:29 0° 15° (NNE) 2,856 ? -20.9°
Reaches altitude 10° 07:36:40 10° 19° (NNE) 1,951 ? -20.8°
Maximum altitude 07:40:53 65° 102° (ESE) 666 ? -20.5°
Enters shadow 07:41:57 46° 161° (SSE) 811 ? -20.4°
